| time (UTC) | temp F | wind direction | speed MPH | gust MPH | rain 1hr in | rain 24hr in | rain mn in | humidity % | barometer mb |
| 20260503043052 | 57 | 308 | 0.0 | 0.0 | 0.00 | 0.01 | 0.01 | 86 | 1032.7 |
| 20260503042544 | 57 | 309 | 0.0 | 0.0 | 0.00 | 0.01 | 0.01 | 85 | 1032.7 |
| 20260503042039 | 58 | 308 | 0.0 | 0.0 | 0.00 | 0.01 | 0.01 | 84 | 1032.7 |
| 20260503041532 | 58 | 308 | 0.0 | 0.0 | 0.00 | 0.01 | 0.01 | 83 | 1032.6 |
| 20260503041044 | 58 | 308 | 0.0 | 0.0 | 0.00 | 0.01 | 0.01 | 82 | 1032.7 |
| 20260503040924 | 59 | 309 | 0.0 | 0.0 | 0.00 | 0.01 | 0.01 | 81 | 1032.6 |
| 20260503040015 | 60 | 309 | 0.0 | 0.0 | 0.00 | 0.01 | 0.01 | 80 | 1032.7 |
| 20260503035508 | 60 | 309 | 0.0 | 0.0 | 0.00 | 0.01 | 0.01 | 78 | 1032.7 |
| 20260503035002 | 61 | 309 | 0.0 | 0.0 | 0.00 | 0.01 | 0.01 | 75 | 1032.7 |
| 20260503034456 | 63 | 309 | 0.0 | 0.0 | 0.00 | 0.01 | 0.01 | 73 | 1032.7 |
| 20260503033954 | 65 | 309 | 0.0 | 0.0 | 0.00 | 0.01 | 0.01 | 70 | 1032.6 |
| 20260503033444 | 67 | 309 | 0.0 | 0.0 | 0.00 | 0.01 | 0.01 | 68 | 1032.7 |
| 20260503032937 | 67 | 309 | 0.0 | 0.0 | 0.00 | 0.01 | 0.01 | 68 | 1032.7 |
| 20260503032432 | 67 | 309 | 0.0 | 0.0 | 0.00 | 0.01 | 0.01 | 69 | 1032.8 |
| 20260503031933 | 67 | 309 | 0.0 | 0.0 | 0.00 | 0.01 | 0.01 | 67 | 1032.8 |
| 20260503031831 | 67 | 309 | 0.0 | 0.0 | 0.00 | 0.01 | 0.01 | 68 | 1032.8 |
| 20260503030914 | 67 | 309 | 0.0 | 0.0 | 0.00 | 0.01 | 0.01 | 66 | 1032.8 |
| 20260503030408 | 66 | 302 | 0.0 | 0.0 | 0.00 | 0.01 | 0.01 | 69 | 1032.8 |
| 20260503025902 | 67 | 301 | 0.0 | 0.0 | 0.00 | 0.01 | 0.01 | 69 | 1032.8 |
| 20260503025356 | 67 | 301 | 0.0 | 0.0 | 0.00 | 0.01 | 0.01 | 69 | 1032.8 |
| 20260503024851 | 67 | 301 | 0.0 | 0.0 | 0.00 | 0.01 | 0.01 | 68 | 1032.8 |
| 20260503024344 | 68 | 301 | 0.0 | 0.0 | 0.00 | 0.01 | 0.01 | 66 | 1032.9 |
| 20260503023838 | 68 | 300 | 0.0 | 0.0 | 0.00 | 0.01 | 0.01 | 66 | 1032.8 |
| 20260503023332 | 68 | 301 | 0.0 | 0.0 | 0.00 | 0.01 | 0.01 | 65 | 1032.9 |
| 20260503022826 | 69 | 300 | 0.0 | 0.0 | 0.00 | 0.01 | 0.01 | 67 | 1032.9 |
| 20260503022721 | 69 | 301 | 0.0 | 0.0 | 0.00 | 0.01 | 0.01 | 64 | 1032.9 |
| 20260503021814 | 68 | 301 | 0.0 | 0.0 | 0.00 | 0.01 | 0.01 | 66 | 1033.1 |
| 20260503021308 | 69 | 300 | 0.0 | 0.0 | 0.00 | 0.01 | 0.01 | 66 | 1033.1 |
| 20260503020802 | 70 | 300 | 0.0 | 0.0 | 0.00 | 0.01 | 0.01 | 66 | 1033.2 |
| 20260503020256 | 70 | 300 | 0.0 | 0.0 | 0.00 | 0.01 | 0.01 | 66 | 1033.2 |
| 20260503015752 | 69 | 300 | 0.0 | 0.0 | 0.00 | 0.01 | 0.01 | 61 | 1033.3 |
| 20260503015245 | 68 | 328 | 0.0 | 0.0 | 0.00 | 0.01 | 0.01 | 67 | 1033.2 |
| 20260503014737 | 69 | 328 | 0.0 | 0.0 | 0.00 | 0.01 | 0.01 | 67 | 1033.4 |
| 20260503014232 | 69 | 326 | 0.0 | 0.0 | 0.00 | 0.01 | 0.01 | 65 | 1033.5 |
| 20260503013726 | 68 | 327 | 0.0 | 1.0 | 0.00 | 0.01 | 0.01 | 69 | 1033.4 |
| 20260503013222 | 68 | 327 | 0.0 | 1.0 | 0.00 | 0.01 | 0.01 | 68 | 1033.5 |
| 20260503012714 | 67 | 327 | 0.0 | 1.0 | 0.00 | 0.01 | 0.01 | 70 | 1033.6 |
| 20260503012207 | 67 | 327 | 0.0 | 0.0 | 0.00 | 0.01 | 0.01 | 68 | 1033.7 |
| 20260503011703 | 67 | 319 | 0.0 | 0.0 | 0.00 | 0.01 | 0.01 | 67 | 1033.8 |
| 20260503011534 | 67 | 298 | 0.0 | 1.0 | 0.00 | 0.01 | 0.01 | 67 | 1033.8 |
| 20260503010652 | 67 | 298 | 0.0 | 1.0 | 0.00 | 0.01 | 0.01 | 71 | 1033.8 |
| 20260503010145 | 67 | 231 | 0.0 | 1.0 | 0.00 | 0.01 | 0.01 | 69 | 1033.8 |
| 20260503005640 | 68 | 335 | 0.0 | 1.0 | 0.00 | 0.01 | 0.01 | 66 | 1033.8 |
| 20260503005140 | 68 | 334 | 0.0 | 1.0 | 0.00 | 0.01 | 0.01 | 67 | 1033.9 |
| 20260503004642 | 68 | 255 | 0.0 | 1.0 | 0.00 | 0.01 | 0.01 | 69 | 1033.9 |
| 20260503004141 | 67 | 334 | 0.0 | 1.0 | 0.00 | 0.01 | 0.01 | 70 | 1033.9 |
| 20260503003641 | 67 | 319 | 0.0 | 1.0 | 0.00 | 0.01 | 0.01 | 73 | 1034.1 |
| 20260503003605 | 66 | 320 | 0.0 | 2.0 | 0.00 | 0.01 | 0.01 | 72 | 1034.3 |
| 20260503002824 | 66 | 305 | 0.0 | 2.0 | 0.00 | 0.01 | 0.01 | 74 | 1034.4 |
| 20260503001636 | 65 | 324 | 0.0 | 2.0 | 0.00 | 0.01 | 0.01 | 73 | 1034.5 |
| 20260503001140 | 66 | 319 | 0.0 | 2.0 | 0.00 | 0.01 | 0.01 | 73 | 1034.5 |
| 20260503000848 | 65 | 273 | 0.0 | 2.0 | 0.00 | 0.01 | 0.01 | 72 | 1034.5 |
| 20260502235807 | 65 | 356 | 0.0 | 2.0 | 0.00 | 0.01 | 0.01 | 76 | 1034.5 |
| 20260502234632 | 64 | 329 | 0.0 | 3.0 | 0.00 | 0.01 | 0.01 | 74 | 1034.8 |
| 20260502234541 | 65 | 280 | 0.0 | 3.0 | 0.00 | 0.01 | 0.01 | 75 | 1034.8 |
| 20260502233628 | 64 | 267 | 0.0 | 2.0 | 0.00 | 0.01 | 0.01 | 74 | 1034.9 |
| 20260502233126 | 64 | 296 | 0.0 | 2.0 | 0.00 | 0.01 | 0.01 | 76 | 1034.9 |
| 20260502232627 | 64 | 325 | 0.0 | 2.0 | 0.00 | 0.01 | 0.01 | 74 | 1034.9 |
| 20260502232126 | 64 | 316 | 0.0 | 1.0 | 0.00 | 0.01 | 0.01 | 75 | 1035.1 |
| 20260502231627 | 63 | 343 | 0.0 | 1.0 | 0.00 | 0.01 | 0.01 | 77 | 1035.2 |
| 20260502231128 | 63 | 330 | 0.0 | 1.0 | 0.00 | 0.01 | 0.01 | 76 | 1035.4 |
| 20260502231032 | 63 | 306 | 0.0 | 1.0 | 0.00 | 0.01 | 0.01 | 77 | 1035.5 |
| 20260502230540 | 62 | 348 | 0.0 | 1.0 | 0.00 | 0.01 | 0.01 | 78 | 1035.4 |
| 20260502225627 | 62 | 274 | 0.0 | 1.0 | 0.00 | 0.01 | 0.01 | 78 | 1035.5 |
| 20260502225126 | 61 | 317 | 0.0 | 1.0 | 0.00 | 0.01 | 0.01 | 79 | 1035.5 |
| 20260502224629 | 61 | 275 | 0.0 | 2.0 | 0.00 | 0.01 | 0.01 | 80 | 1035.4 |
| 20260502224127 | 60 | 312 | 0.0 | 3.0 | 0.00 | 0.01 | 0.01 | 81 | 1035.4 |
| 20260502224026 | 60 | 315 | 0.0 | 5.0 | 0.00 | 0.01 | 0.01 | 80 | 1035.5 |
| 20260502223125 | 59 | 6 | 0.0 | 5.0 | 0.00 | 0.01 | 0.01 | 80 | 1035.5 |
| 20260502222626 | 59 | 322 | 0.0 | 2.0 | 0.00 | 0.01 | 0.01 | 80 | 1035.5 |
| 20260502222126 | 59 | 307 | 0.0 | 3.0 | 0.00 | 0.01 | 0.01 | 82 | 1035.6 |
| 20260502221624 | 58 | 310 | 0.0 | 3.0 | 0.00 | 0.01 | 0.01 | 81 | 1035.6 |
| 20260502221526 | 58 | 293 | 0.0 | 2.0 | 0.00 | 0.01 | 0.01 | 83 | 1035.6 |
| 20260502220628 | 57 | 348 | 0.0 | 2.0 | 0.00 | 0.01 | 0.01 | 83 | 1035.6 |
| 20260502220610 | 57 | 310 | 0.0 | 3.0 | 0.00 | 0.01 | 0.01 | 83 | 1035.7 |
| 20260502220025 | 56 | 318 | 0.0 | 3.0 | 0.00 | 0.01 | 0.01 | 83 | 1035.5 |
| 20260502215304 | 56 | 324 | 0.0 | 2.0 | 0.00 | 0.01 | 0.01 | 84 | 1035.5 |
| 20260502214058 | 55 | 286 | 0.0 | 2.0 | 0.00 | 0.01 | 0.01 | 88 | 1035.7 |
| 20260502214004 | 54 | 287 | 0.0 | 3.0 | 0.00 | 0.01 | 0.01 | 88 | 1035.7 |
| 20260502213454 | 54 | 259 | 1.0 | 4.0 | 0.00 | 0.01 | 0.01 | 89 | 1035.8 |
| 20260502212540 | 53 | 278 | 1.0 | 4.0 | 0.00 | 0.01 | 0.01 | 88 | 1035.9 |
| 20260502212034 | 53 | 345 | 0.0 | 3.0 | 0.00 | 0.01 | 0.01 | 88 | 1036.1 |
| 20260502211925 | 53 | 262 | 0.0 | 4.0 | 0.00 | 0.01 | 0.01 | 90 | 1036.2 |
| 20260502211022 | 52 | 283 | 0.0 | 4.0 | 0.00 | 0.01 | 0.01 | 90 | 1036.2 |
| 20260502210517 | 51 | 287 | 0.0 | 3.0 | 0.00 | 0.01 | 0.01 | 91 | 1036.2 |
| 20260502210010 | 51 | 289 | 0.0 | 3.0 | 0.00 | 0.01 | 0.01 | 90 | 1036.1 |
| 20260502205503 | 51 | 287 | 0.0 | 3.0 | 0.00 | 0.01 | 0.01 | 91 | 1036.2 |
| 20260502204958 | 50 | 295 | 0.0 | 3.0 | 0.00 | 0.01 | 0.01 | 91 | 1036.2 |
| 20260502204452 | 50 | 300 | 0.0 | 3.0 | 0.00 | 0.01 | 0.01 | 94 | 1036.3 |
| 20260502203948 | 50 | 310 | 0.0 | 1.0 | 0.00 | 0.01 | 0.01 | 95 | 1036.1 |
| 20260502203440 | 49 | 311 | 0.0 | 1.0 | 0.00 | 0.01 | 0.01 | 96 | 1036.1 |
| 20260502202934 | 49 | 310 | 0.0 | 1.0 | 0.00 | 0.01 | 0.01 | 97 | 1036.1 |
| 20260502202428 | 48 | 315 | 0.0 | 1.0 | 0.00 | 0.01 | 0.01 | 98 | 1036.1 |
| 20260502201925 | 48 | 307 | 0.0 | 1.0 | 0.00 | 0.01 | 0.01 | 99 | 1036.1 |
| 20260502201417 | 47 | 308 | 0.0 | 1.0 | 0.00 | 0.01 | 0.01 | 99 | 1036.1 |
| 20260502200910 | 47 | 341 | 0.0 | 3.0 | 0.00 | 0.01 | 0.01 | 100 | 1036.1 |
| 20260502200405 | 46 | 319 | 0.0 | 3.0 | 0.00 | 0.01 | 0.01 | 100 | 1036.1 |
| 20260502195858 | 46 | 286 | 0.0 | 1.0 | 0.00 | 0.01 | 0.01 | 100 | 1036.0 |
| 20260502195353 | 45 | 296 | 0.0 | 0.0 | 0.00 | 0.01 | 0.01 | 100 | 1036.0 |
| 20260502194847 | 45 | 296 | 0.0 | 0.0 | 0.00 | 0.01 | 0.01 | 100 | 1035.9 |
| 20260502194725 | 44 | 296 | 0.0 | 1.0 | 0.00 | 0.01 | 0.01 | 100 | 1035.9 |
| 20260502193834 | 44 | 296 | 0.0 | 1.0 | 0.00 | 0.01 | 0.01 | 100 | 1035.9 |
| 20260502193328 | 43 | 296 | 0.0 | 1.0 | 0.00 | 0.01 | 0.01 | 100 | 1035.9 |
| 20260502192822 | 42 | 296 | 0.0 | 1.0 | 0.00 | 0.01 | 0.01 | 99 | 1035.7 |
| 20260502192317 | 42 | 296 | 0.0 | 0.0 | 0.00 | 0.01 | 0.01 | 99 | 1035.8 |
| 20260502192007 | 42 | 296 | 0.0 | 0.0 | 0.00 | 0.01 | 0.01 | 99 | 1035.8 |
| 20260502190759 | 42 | 296 | 0.0 | 0.0 | 0.00 | 0.01 | 0.01 | 100 | 1035.7 |
| 20260502190252 | 42 | 296 | 0.0 | 0.0 | 0.00 | 0.01 | 0.01 | 99 | 1035.7 |
| 20260502185747 | 41 | 296 | 0.0 | 0.0 | 0.00 | 0.01 | 0.01 | 99 | 1035.6 |
| 20260502185241 | 41 | 296 | 0.0 | 0.0 | 0.00 | 0.01 | 0.01 | 99 | 1035.5 |
| 20260502184734 | 41 | 296 | 0.0 | 0.0 | 0.00 | 0.01 | 0.01 | 99 | 1035.4 |
| 20260502184228 | 41 | 296 | 0.0 | 1.0 | 0.00 | 0.01 | 0.01 | 99 | 1035.4 |
| 20260502183723 | 41 | 296 | 0.0 | 1.0 | 0.00 | 0.01 | 0.01 | 99 | 1035.4 |
| 20260502183217 | 41 | 296 | 0.0 | 0.0 | 0.00 | 0.01 | 0.01 | 99 | 1035.4 |
| 20260502182704 | 41 | 296 | 0.0 | 1.0 | 0.00 | 0.01 | 0.01 | 98 | 1035.3 |
| 20260502182159 | 42 | 296 | 0.0 | 1.0 | 0.00 | 0.01 | 0.01 | 99 | 1035.3 |
| 20260502181653 | 42 | 296 | 0.0 | 1.0 | 0.00 | 0.01 | 0.01 | 99 | 1035.3 |
| 20260502181147 | 42 | 10 | 0.0 | 1.0 | 0.00 | 0.01 | 0.01 | 99 | 1035.4 |
| 20260502181029 | 42 | 329 | 0.0 | 1.0 | 0.00 | 0.01 | 0.01 | 99 | 1035.3 |
| 20260502180135 | 42 | 304 | 0.0 | 1.0 | 0.00 | 0.01 | 0.01 | 99 | 1035.4 |
| 20260502170133 | 43 | 305 | 0.0 | 2.0 | 0.00 | 0.01 | 0.01 | 100 | 1035.3 |
| 20260502164133 | 42 | 315 | 0.0 | 1.0 | 0.00 | 0.01 | 0.01 | 99 | 1035.3 |
| 20260502163625 | 42 | 315 | 0.0 | 1.0 | 0.00 | 0.01 | 0.01 | 99 | 1035.3 |
| 20260502163129 | 42 | 315 | 0.0 | 1.0 | 0.00 | 0.01 | 0.01 | 99 | 1035.3 |
| 20260502162626 | 42 | 321 | 0.0 | 2.0 | 0.00 | 0.01 | 0.01 | 99 | 1035.5 |
| 20260502162125 | 43 | 322 | 0.0 | 2.0 | 0.00 | 0.01 | 0.01 | 99 | 1035.3 |
| 20260502161626 | 43 | 316 | 0.0 | 1.0 | 0.00 | 0.01 | 0.01 | 99 | 1035.4 |
| 20260502161122 | 42 | 293 | 0.0 | 0.0 | 0.00 | 0.01 | 0.01 | 99 | 1035.3 |
| 20260502160614 | 42 | 331 | 0.0 | 1.0 | 0.00 | 0.02 | 0.01 | 99 | 1035.3 |
| 20260502160109 | 43 | 331 | 0.0 | 1.0 | 0.00 | 0.02 | 0.01 | 99 | 1035.3 |
| 20260502152022 | 43 | 291 | 0.0 | 0.0 | 0.01 | 0.02 | 0.01 | 99 | 1035.3 |
| 20260502151514 | 43 | 298 | 0.0 | 1.0 | 0.01 | 0.02 | 0.01 | 99 | 1035.4 |
| 20260502151008 | 43 | 298 | 0.0 | 3.0 | 0.01 | 0.02 | 0.01 | 99 | 1035.4 |
| 20260502150502 | 43 | 298 | 0.0 | 3.0 | 0.01 | 0.02 | 0.01 | 99 | 1035.4 |
| 20260502130306 | 44 | 336 | 0.0 | 1.0 | 0.00 | 0.01 | 0.00 | 100 | 1035.1 |
| 20260502123805 | 44 | 345 | 0.0 | 1.0 | 0.00 | 0.01 | 0.00 | 100 | 1034.9 |
| 20260502123306 | 44 | 354 | 0.0 | 1.0 | 0.00 | 0.01 | 0.00 | 100 | 1035.1 |
| 20260502123210 | 44 | 355 | 0.0 | 1.0 | 0.00 | 0.01 | 0.00 | 100 | 1035.1 |
| 20260502122306 | 44 | 357 | 0.0 | 0.0 | 0.00 | 0.01 | 0.00 | 100 | 1034.8 |
| 20260502121809 | 44 | 357 | 0.0 | 0.0 | 0.00 | 0.01 | 0.00 | 100 | 1034.9 |
| 20260502121309 | 43 | 357 | 0.0 | 0.0 | 0.00 | 0.01 | 0.00 | 100 | 1034.9 |
| 20260502121151 | 42 | 108 | 0.0 | 0.0 | 0.00 | 0.01 | 0.00 | 99 | 1035.1 |
| 20260502120306 | 42 | 108 | 0.0 | 0.0 | 0.00 | 0.01 | 0.00 | 99 | 1034.9 |
| 20260502120216 | 42 | 108 | 0.0 | 0.0 | 0.00 | 0.01 | 0.01 | 99 | 1034.9 |
| 20260502115253 | 41 | 108 | 0.0 | 0.0 | 0.00 | 0.01 | 0.01 | 99 | 1035.1 |
| 20260502115142 | 41 | 108 | 0.0 | 0.0 | 0.00 | 0.01 | 0.01 | 99 | 1034.8 |
| 20260502114242 | 42 | 108 | 0.0 | 0.0 | 0.00 | 0.01 | 0.01 | 99 | 1034.8 |
| 20260502113735 | 42 | 108 | 0.0 | 0.0 | 0.00 | 0.01 | 0.01 | 99 | 1034.8 |
| 20260502113229 | 42 | 108 | 0.0 | 0.0 | 0.00 | 0.01 | 0.01 | 99 | 1034.8 |
| 20260502112723 | 42 | 108 | 0.0 | 0.0 | 0.00 | 0.01 | 0.01 | 99 | 1034.7 |
| 20260502112217 | 42 | 108 | 0.0 | 0.0 | 0.00 | 0.01 | 0.01 | 99 | 1034.8 |
| 20260502111712 | 42 | 108 | 0.0 | 0.0 | 0.00 | 0.01 | 0.01 | 98 | 1034.8 |
| 20260502111205 | 41 | 108 | 0.0 | 0.0 | 0.00 | 0.01 | 0.01 | 98 | 1034.7 |
| 20260502110659 | 42 | 108 | 0.0 | 0.0 | 0.00 | 0.01 | 0.01 | 98 | 1034.7 |
| 20260502110153 | 42 | 108 | 0.0 | 0.0 | 0.00 | 0.01 | 0.01 | 98 | 1034.7 |
| 20260502105647 | 42 | 108 | 0.0 | 0.0 | 0.00 | 0.01 | 0.01 | 98 | 1034.8 |
| 20260502105142 | 43 | 108 | 0.0 | 0.0 | 0.00 | 0.01 | 0.01 | 99 | 1034.7 |
| 20260502104635 | 43 | 108 | 0.0 | 0.0 | 0.00 | 0.01 | 0.01 | 99 | 1034.7 |
| 20260502104131 | 43 | 108 | 0.0 | 0.0 | 0.00 | 0.01 | 0.01 | 99 | 1034.6 |
| 20260502103625 | 43 | 108 | 0.0 | 0.0 | 0.00 | 0.01 | 0.01 | 99 | 1034.7 |
| 20260502103126 | 44 | 108 | 0.0 | 0.0 | 0.00 | 0.01 | 0.01 | 99 | 1034.7 |
| 20260502102626 | 44 | 108 | 0.0 | 0.0 | 0.00 | 0.01 | 0.01 | 99 | 1034.6 |
| 20260502102519 | 44 | 108 | 0.0 | 0.0 | 0.00 | 0.01 | 0.01 | 99 | 1034.5 |
| 20260502101626 | 44 | 108 | 0.0 | 0.0 | 0.00 | 0.01 | 0.01 | 99 | 1034.5 |
| 20260502101124 | 44 | 108 | 0.0 | 0.0 | 0.00 | 0.01 | 0.01 | 99 | 1034.5 |
| 20260502100623 | 43 | 108 | 0.0 | 0.0 | 0.00 | 0.01 | 0.01 | 99 | 1034.6 |
| 20260502100130 | 42 | 108 | 0.0 | 0.0 | 0.00 | 0.01 | 0.01 | 99 | 1034.5 |
| 20260502091505 | 42 | 108 | 0.0 | 0.0 | 0.00 | 0.01 | 0.01 | 98 | 1034.2 |
| 20260502090618 | 41 | 108 | 0.0 | 0.0 | 0.00 | 0.01 | 0.01 | 98 | 1034.0 |
| 20260502090107 | 41 | 108 | 0.0 | 0.0 | 0.00 | 0.01 | 0.01 | 98 | 1034.0 |
| 20260502080104 | 41 | 108 | 0.0 | 0.0 | 0.00 | 0.01 | 0.01 | 97 | 1033.8 |
| 20260502071043 | 43 | 108 | 0.0 | 0.0 | 0.00 | 0.01 | 0.01 | 95 | 1033.6 |
| 20260502070536 | 43 | 108 | 0.0 | 0.0 | 0.00 | 0.01 | 0.01 | 95 | 1033.5 |
| 20260502070032 | 44 | 108 | 0.0 | 0.0 | 0.00 | 0.01 | 0.01 | 95 | 1033.4 |
| 20260502065524 | 44 | 108 | 0.0 | 0.0 | 0.00 | 0.01 | 0.01 | 95 | 1033.4 |
| 20260502065419 | 44 | 108 | 0.0 | 0.0 | 0.00 | 0.01 | 0.01 | 95 | 1033.5 |
| 20260502064512 | 44 | 108 | 0.0 | 0.0 | 0.00 | 0.01 | 0.01 | 95 | 1033.5 |
| 20260502064006 | 45 | 108 | 0.0 | 0.0 | 0.00 | 0.01 | 0.01 | 95 | 1033.4 |
| 20260502063502 | 45 | 108 | 0.0 | 0.0 | 0.00 | 0.01 | 0.01 | 94 | 1033.5 |
| 20260502062954 | 45 | 108 | 0.0 | 0.0 | 0.00 | 0.01 | 0.01 | 94 | 1033.4 |
| 20260502062850 | 45 | 108 | 0.0 | 0.0 | 0.00 | 0.01 | 0.01 | 93 | 1033.6 |
| 20260502062344 | 46 | 108 | 0.0 | 0.0 | 0.00 | 0.01 | 0.01 | 93 | 1033.4 |
| 20260502061703 | 46 | 107 | 0.0 | 0.0 | 0.00 | 0.01 | 0.01 | 93 | 1033.2 |
| 20260502060932 | 47 | 108 | 0.0 | 0.0 | 0.00 | 0.01 | 0.01 | 93 | 1033.1 |
| 20260502060424 | 47 | 107 | 0.0 | 0.0 | 0.00 | 0.01 | 0.01 | 92 | 1033.2 |
| 20260502055918 | 48 | 108 | 0.0 | 0.0 | 0.00 | 0.01 | 0.01 | 92 | 1033.1 |
| 20260502055412 | 48 | 107 | 0.0 | 0.0 | 0.00 | 0.01 | 0.01 | 92 | 1033.1 |
| 20260502054906 | 49 | 108 | 0.0 | 0.0 | 0.00 | 0.01 | 0.01 | 92 | 1033.1 |
| 20260502054801 | 49 | 107 | 0.0 | 0.0 | 0.00 | 0.01 | 0.01 | 91 | 1032.9 |
| 20260502053855 | 49 | 108 | 0.0 | 0.0 | 0.00 | 0.01 | 0.01 | 90 | 1032.9 |
| 20260502053724 | 50 | 107 | 0.0 | 0.0 | 0.00 | 0.01 | 0.01 | 90 | 1032.9 |
| 20260502052842 | 51 | 107 | 0.0 | 0.0 | 0.00 | 0.01 | 0.01 | 90 | 1032.7 |
| 20260502052337 | 51 | 107 | 0.0 | 0.0 | 0.00 | 0.01 | 0.01 | 89 | 1032.7 |
| 20260502051832 | 52 | 108 | 0.0 | 0.0 | 0.00 | 0.01 | 0.01 | 88 | 1032.7 |
| 20260502051325 | 53 | 107 | 0.0 | 0.0 | 0.00 | 0.01 | 0.01 | 88 | 1032.7 |
| 20260502051259 | 53 | 107 | 0.0 | 0.0 | 0.00 | 0.01 | 0.01 | 87 | 1032.7 |
| 20260502050312 | 54 | 107 | 0.0 | 0.0 | 0.00 | 0.01 | 0.01 | 86 | 1032.7 |
| 20260502045806 | 55 | 107 | 0.0 | 0.0 | 0.00 | 0.01 | 0.01 | 84 | 1032.5 |
| 20260502045305 | 56 | 107 | 0.0 | 0.0 | 0.00 | 0.01 | 0.01 | 83 | 1032.4 |
| 20260502044754 | 56 | 107 | 0.0 | 0.0 | 0.00 | 0.01 | 0.01 | 81 | 1032.5 |
| 20260502044248 | 58 | 107 | 0.0 | 0.0 | 0.00 | 0.01 | 0.01 | 79 | 1032.4 |
| 20260502043742 | 58 | 108 | 0.0 | 1.0 | 0.00 | 0.01 | 0.01 | 77 | 1032.4 |